This is the latest recevied weather packets stored in our database for station/object K8JCL-13. If no packets are shown the sender has not sent any weather packets the latest 10 day(s).
| Time | Temp. | Humidity | Pressure | Rain* | Wind** | Luminosity | Snow |
|---|---|---|---|---|---|---|---|
| 1777360413 | 14.44° C | 99% | 1005.8 hPa | 0 mm | - | 0 W/m² | - |
| 1777360110 | 14.44° C | 99% | 1005.9 hPa | 0 mm | - | 0 W/m² | - |
| 1777359807 | 14.44° C | 99% | 1006.1 hPa | 1.78 mm | - | 0 W/m² | - |
| 1777359504 | 14.44° C | 99% | 1005.7 hPa | 1.78 mm | - | 0 W/m² | - |
| 1777359200 | 14.44° C | 99% | 1007 hPa | 1.27 mm | - | 0 W/m² | - |
| 1777358899 | 14.44° C | 99% | 1009.2 hPa | 1.27 mm | - | 0 W/m² | - |
| 1777358595 | 14.44° C | 99% | 1009.8 hPa | 1.78 mm | - | 0 W/m² | - |
| 1777358293 | 14.44° C | 99% | 1010.6 hPa | 4.83 mm | - | 0 W/m² | - |
| 1777357991 | 14.44° C | 99% | 1010.8 hPa | 6.1 mm | - | 0 W/m² | - |
| 1777357688 | 14.44° C | 99% | 1011.6 hPa | 6.1 mm | - | 0 W/m² | - |
| 1777357384 | 14.44° C | 99% | 1011.9 hPa | 7.11 mm | - | 0 W/m² | - |
| 1777357076 | 14.44° C | 99% | 1012.3 hPa | 8.89 mm | - | 0 W/m² | - |
| 1777356773 | 14.44° C | 99% | 1012.6 hPa | 8.89 mm | - | 0 W/m² | - |
| 1777356471 | 14.44° C | 99% | 1012.6 hPa | 8.89 mm | - | 0 W/m² | - |
| 1777356167 | 14.44° C | 99% | 1012.8 hPa | 6.1 mm | - | 0 W/m² | - |
| 1777355864 | 14.44° C | 99% | 1012.8 hPa | 3.05 mm | - | 0 W/m² | - |
| 1777355560 | 14.44° C | 99% | 1012.8 hPa | 4.83 mm | - | 0 W/m² | - |
| 1777355258 | 14.44° C | 99% | 1012.8 hPa | 8.89 mm | - | 0 W/m² | - |
| 1777354954 | 14.44° C | 99% | 1013.4 hPa | 16.76 mm | - | 0 W/m² | - |
| 1777354649 | 15° C | 99% | 1013.3 hPa | 19.81 mm | - | 0 W/m² | - |
| 1777354345 | 15° C | 99% | 1014.1 hPa | 19.81 mm | - | 0 W/m² | - |
| 1777354043 | 15° C | 99% | 1014.4 hPa | 28.7 mm | - | 0 W/m² | - |
| 1777353739 | 15° C | 99% | 1014 hPa | 49.28 mm | - | 0 W/m² | - |
| 1777353437 | 15° C | 99% | 1013.8 hPa | 51.56 mm | - | 0 W/m² | - |
| 1777353135 | 15.56° C | 99% | 1013.4 hPa | 14.99 mm | - | 0 W/m² | - |
* Rain latest hour (hover to see other rain measurements)
** Current wind speed in m/s (hover to see current wind gust speed)